Regional Weather Roundup
Issued by NWS Northern Indiana

Home | Current Version | Previous Version | Graphics & Text | Print | Product List | Glossary On
Versions: 1 2 3 4 5 6 7 8 9 10 11 12 13 14 15 16 17 18 19 20 21 22 23 24 25 26 27 28 29 30 31 32 33 34 35 36 37 38 39 40 41 42 43 44 45 46 47 48 49 50
000
ASUS43 KIWX 132100
RWRIWX

KIWX WEATHER ROUNDUP
NATIONAL WEATHER SERVICE NORTHERN INDIANA
400 PM EST WED DEC 13 2017

NOTE: "FAIR" INDICATES FEW OR NO CLOUDS BELOW 12,000 FEET WITH NO
SIGNIFICANT WEATHER AND/OR OBSTRUCTIONS TO VISIBILITY.

* THESE STATIONS ARE NOT UNDER NWS QUALITY CONTROL. THEY ALSO MAY NOT
  REPORT WEATHER SUCH AS PRECIPITATION OR FOG.

INZ001>027-132200-
NORTHERN INDIANA

CITY           SKY/WX    TMP DP  RH WIND       PRES   REMARKS
GARY*          LGT RAIN  36  32  87 SW12G23   29.29F
VALPARAISO     LGT SNOW  36  32  87 SW13      29.30S FOG
MICHIGAN CITY* LGT SNOW  32  32 100 SW9       29.29S WCI  24
LAPORTE*       LGT SNOW  33  31  94 SW15G25   29.29S VSB 3/4 WCI  23
KNOX*          CLOUDY    34  32  93 SW15G22   29.30F WCI  24
SOUTH BEND     LGT SNOW  30  28  92 S10       29.30F VSB 1   WCI  21
ELKHART*       LGT SNOW  30  19  64 S12G21    29.30F WCI  21
GOSHEN         LGT SNOW  30  22  72 S17       29.32F WCI  18
MONTICELLO*    CLOUDY    34  32  92 SW17G23   29.35F WCI  24
ROCHESTER*     LGT RAIN  36  34  93 SW16G26   29.34F
WARSAW*        LGT SNOW  32  21  64 SW7       29.34S WCI  26
AUBURN*        CLOUDY    30  14  51 SE6       29.36F WCI  24
FORT WAYNE     CLOUDY    33  19  56 S16       29.37F WCI  23
PERU/GRISSOM   FLURRIES  33  33  99 SW20      29.36R WCI  21

$$
INZ028>050-132200-
CENTRAL INDIANA

CITY           SKY/WX    TMP DP  RH WIND       PRES   REMARKS
LAFAYETTE      CLOUDY    36  31  82 SW13G20   29.37F
KOKOMO*        LGT SNOW  33  30  88 SW20      29.38F FOG     WCI  21
MUNCIE*        CLOUDY    37  13  37 SW14G22   29.40F
INDIANAPOLIS   CLOUDY    40  23  50 SW28G37   29.44F

$$
MIZ043>046-050>051-056>058-064>065-071>073-077>080-132200-
SOUTHWEST LOWER MICHIGAN

CITY           SKY/WX    TMP DP  RH WIND       PRES   REMARKS
BATTLE CREEK   LGT SNOW  24  17  74 SE7       29.35F WCI  16
BENTON HARBOR  LGT SNOW  28  22  78 SE8       29.28F WCI  20
COLDWATER*     CLOUDY    27  15  61 SE10G17   29.34F WCI  17
HILLSDALE*     FLURRIES  23  14  68 S10G20    29.35F WCI  12
HOLLAND        LGT SNOW  23  20  88 E13       29.33F VSB 3/4 WCI  11
GRAND RAPIDS   HVY SNOW  20  17  88 E15       29.37S VSB 1/4 WCI   6
KALAMAZOO      HVY SNOW  25  18  74 SE7       29.34S VSB 1/4 WCI  17
STURGIS*       CLOUDY    28  17  63 S9        29.32S WCI  19
THREE RIVERS*  LGT SNOW  29  18  63 S10G16    29.33S WCI  20

$$
OHZ001>008-015>018-024>025-132200-
NORTHWEST OHIO

CITY           SKY/WX    TMP DP  RH WIND       PRES   REMARKS
DEFIANCE       CLOUDY    29  11  47 S13G21    29.40F WCI  19
FINDLAY        CLOUDY    28  11  48 S16       29.45F WCI  16
TOLEDO EXPRESS CLOUDY    25  16  68 VRB6      29.44F WCI  18
TOLEDO METCALF CLOUDY    24  16  71 SE13      29.47F WCI  12
LIMA           CLOUDY    28  14  55 S16G26    29.43F WCI  16

$$
AND FOR LAKE MICHIGAN COASTAL AND OPEN LAKE BUOY OBSERVATIONS

STATION/POSITION TEMP    WIND        PRES    VSBY  WAVE
                 AIR SEA DIR/SP/G                  HT/PER
                 (F)     (DEG/KT/KT) (MB)    (MI)  (FT/S)
CALUMET HARBOR    35     210/  9/ 14  991.1F
MICHIGAN CITY     33     210/ 18/ 19   N/A
BURNS HARBOR      34     210/ 12/ 16  992.6S
SAINT JOSEPH      30     170/  4/  9  992.9F

$$
&&




USA.gov is the U.S. government's official web portal to all federal, state and local government web resources and services.